"Period start","avg(HW err(1)/warn(2) (#))","avg(Visibility (m))","avg(Weather code (#))","avg(Precip intensity (mm/h))","min(HW err(1)/warn(2) (#))","max(HW err(1)/warn(2) (#))","std(HW err(1)/warn(2) (#))","med(HW err(1)/warn(2) (#))","min(Visibility (m))","max(Visibility (m))","std(Visibility (m))","med(Visibility (m))","min(Weather code (#))","max(Weather code (#))","std(Weather code (#))","med(Weather code (#))","min(Precip intensity (mm/h))","max(Precip intensity (mm/h))","std(Precip intensity (mm/h))","med(Precip intensity (mm/h))"
2014-03-14 00:00:00,2,31364,0,0.00,2,2,0,2,23133,42649,7162,29938,0,0,0,0,0.00,0.00,0.00,0.00
2014-03-14 00:10:00,2,18480,0,0.00,2,2,0,2,8499,28594,7148,17722,0,0,0,0,0.00,0.00,0.00,0.00
2014-03-14 00:20:00,2,20451,0,0.00,2,2,0,2,12149,30641,5269,19636,0,0,0,0,0.00,0.00,0.00,0.00
2014-03-14 00:30:00,2,31101,0,0.00,2,2,0,2,25259,35835,3857,30942,0,0,0,0,0.00,0.00,0.00,0.00
2014-03-14 00:40:00,2,22621,0,0.00,2,2,0,2,18052,26731,2830,23084,0,0,0,0,0.00,0.00,0.00,0.00
2014-03-14 00:50:00,2,24368,0,0.00,2,2,0,2,20501,28669,2291,24375,0,0,0,0,0.00,0.00,0.00,0.00
2014-03-14 01:00:00,2,24144,0,0.00,2,2,0,2,19145,28961,3459,24226,0,0,0,0,0.00,0.00,0.00,0.00
2014-03-14 01:10:00,2,30036,0,0.00,2,2,0,2,21636,38679,4886,30287,0,0,0,0,0.00,0.00,0.00,0.00
2014-03-14 01:20:00,2,26030,0,0.00,2,2,0,2,20196,32552,3814,26070,0,0,0,0,0.00,0.00,0.00,0.00
2014-03-14 01:30:00,2,28701,0,0.00,2,2,0,2,21421,41766,5225,28020,0,0,0,0,0.00,0.00,0.00,0.00
2014-03-14 01:40:00,2,32851,0,0.00,2,2,0,2,24671,43921,6123,32251,0,0,0,0,0.00,0.00,0.00,0.00
2014-03-14 01:50:00,2,24295,0,0.00,2,2,0,2,17251,36148,5155,23902,0,0,0,0,0.00,0.00,0.00,0.00
2014-03-14 02:00:00,2,22459,0,0.00,2,2,0,2,14988,26686,4226,24333,0,0,0,0,0.00,0.00,0.00,0.00
2014-03-14 02:10:00,2,22043,0,0.00,2,2,0,2,16410,31632,4681,20474,0,0,0,0,0.00,0.00,0.00,0.00
2014-03-14 02:20:00,2,21221,0,0.00,2,2,0,2,14920,30681,5417,18986,0,0,0,0,0.00,0.00,0.00,0.00
2014-03-14 02:30:00,2,22901,0,0.00,2,2,0,2,16534,30717,3523,22993,0,0,0,0,0.00,0.00,0.00,0.00
2014-03-14 02:40:00,2,31443,0,0.00,2,2,0,2,21642,43124,6809,30618,0,0,0,0,0.00,0.00,0.00,0.00
2014-03-14 02:50:00,2,22750,0,0.00,2,2,0,2,14949,30330,3959,22223,0,0,0,0,0.00,0.00,0.00,0.00
2014-03-14 03:00:00,2,23738,0,0.00,2,2,0,2,18113,36195,4825,22682,0,0,0,0,0.00,0.00,0.00,0.00
2014-03-14 03:10:00,2,29017,0,0.00,2,2,0,2,23479,35209,3731,27836,0,0,0,0,0.00,0.00,0.00,0.00
2014-03-14 03:20:00,2,23130,0,0.00,2,2,0,2,15751,32255,5572,23533,0,0,0,0,0.00,0.00,0.00,0.00
2014-03-14 03:30:00,2,25301,0,0.00,2,2,0,2,18389,33897,4827,25482,0,0,0,0,0.00,0.00,0.00,0.00
2014-03-14 03:40:00,2,29754,0,0.00,2,2,0,2,25814,34414,2458,29093,0,0,0,0,0.00,0.00,0.00,0.00
2014-03-14 03:50:00,2,32777,0,0.00,2,2,0,2,19850,47000,7667,33034,0,0,0,0,0.00,0.00,0.00,0.00
2014-03-14 04:00:00,2,31776,0,0.00,2,2,0,2,21675,46831,8213,30298,0,0,0,0,0.00,0.00,0.00,0.00
2014-03-14 04:10:00,2,31648,0,0.00,2,2,0,2,20542,44316,5782,31201,0,0,0,0,0.00,0.00,0.00,0.00
2014-03-14 04:20:00,2,29273,0,0.00,2,2,0,2,22390,38460,5690,28089,0,0,0,0,0.00,0.00,0.00,0.00
2014-03-14 04:30:00,2,32829,0,0.00,2,2,0,2,18416,40741,6659,33839,0,0,0,0,0.00,0.00,0.00,0.00
2014-03-14 04:40:00,2,25453,0,0.00,2,2,0,2,17599,33183,4297,24874,0,0,0,0,0.00,0.00,0.00,0.00
2014-03-14 04:50:00,2,25502,0,0.00,2,2,0,2,18871,31731,3535,25078,0,0,0,0,0.00,0.00,0.00,0.00
2014-03-14 05:00:00,2,30812,0,0.00,2,2,0,2,21898,46597,6396,29424,0,0,0,0,0.00,0.00,0.00,0.00
2014-03-14 05:10:00,2,25094,0,0.00,2,2,0,2,20010,31303,3599,25529,0,0,0,0,0.00,0.00,0.00,0.00
2014-03-14 05:20:00,2,23100,0,0.00,2,2,0,2,19306,28400,2849,22546,0,0,0,0,0.00,0.00,0.00,0.00
2014-03-14 05:30:00,2,28759,0,0.00,2,2,0,2,19695,38388,5318,27502,0,0,0,0,0.00,0.00,0.00,0.00
2014-03-14 05:40:00,2,23639,0,0.00,2,2,0,2,18173,35311,4817,22419,0,0,0,0,0.00,0.00,0.00,0.00
2014-03-14 05:50:00,2,30175,0,0.00,2,2,0,2,23164,36716,4337,30334,0,0,0,0,0.00,0.00,0.00,0.00
2014-03-14 06:00:00,2,25591,0,0.00,2,2,0,2,17296,31555,4252,26514,0,0,0,0,0.00,0.00,0.00,0.00
2014-03-14 06:10:00,2,30951,0,0.00,2,2,0,2,24045,33437,2946,32413,0,0,0,0,0.00,0.00,0.00,0.00
2014-03-14 06:20:00,2,32444,0,0.00,2,2,0,2,25835,35648,2935,32930,0,0,0,0,0.00,0.00,0.00,0.00
2014-03-14 06:30:00,2,29574,0,0.00,2,2,0,2,22890,36222,3961,30228,0,0,0,0,0.00,0.00,0.00,0.00
2014-03-14 06:40:00,2,30489,0,0.00,2,2,0,2,22029,35730,3634,30546,0,0,0,0,0.00,0.00,0.00,0.00
2014-03-14 06:50:00,2,26796,0,0.00,2,2,0,2,24313,36125,3351,25905,0,0,0,0,0.00,0.00,0.00,0.00
2014-03-14 07:00:00,2,25273,0,0.00,2,2,0,2,21076,28999,2306,25750,0,0,0,0,0.00,0.00,0.00,0.00
2014-03-14 07:10:00,2,24455,0,0.00,2,2,0,2,20028,29725,2843,23670,0,0,0,0,0.00,0.00,0.00,0.00
2014-03-14 07:20:00,2,26233,0,0.00,2,2,0,2,21811,30752,3004,25572,0,0,0,0,0.00,0.00,0.00,0.00
2014-03-14 07:30:00,2,27446,0,0.00,2,2,0,2,22580,35738,3730,27289,0,0,0,0,0.00,0.00,0.00,0.00
2014-03-14 07:40:00,2,25890,0,0.00,2,2,0,2,20910,37077,4498,24670,0,0,0,0,0.00,0.00,0.00,0.00
2014-03-14 07:50:00,2,28249,0,0.00,2,2,0,2,23676,33329,3198,27187,0,0,0,0,0.00,0.00,0.00,0.00
2014-03-14 08:00:00,2,25554,0,0.00,2,2,0,2,22185,29246,2588,24465,0,0,0,0,0.00,0.00,0.00,0.00
2014-03-14 08:10:00,2,25506,0,0.00,2,2,0,2,19504,31608,3939,24854,0,0,0,0,0.00,0.00,0.00,0.00
2014-03-14 08:20:00,2,25358,0,0.00,2,2,0,2,19462,32983,4538,25068,0,0,0,0,0.00,0.00,0.00,0.00
2014-03-14 08:30:00,2,23593,0,0.00,2,2,0,2,20336,27408,2253,23980,0,0,0,0,0.00,0.00,0.00,0.00
2014-03-14 08:40:00,2,26283,0,0.00,2,2,0,2,23054,30096,2304,25669,0,0,0,0,0.00,0.00,0.00,0.00
2014-03-14 08:50:00,2,22562,0,0.00,2,2,0,2,19010,28391,2992,21248,0,0,0,0,0.00,0.00,0.00,0.00
2014-03-14 09:00:00,2,24689,0,0.00,2,2,0,2,19707,31633,3903,23162,0,0,0,0,0.00,0.00,0.00,0.00
2014-03-14 09:10:00,2,26167,0,0.00,2,2,0,2,22732,33175,2647,25678,0,0,0,0,0.00,0.00,0.00,0.00
2014-03-14 09:20:00,2,27484,0,0.00,2,2,0,2,22233,35665,4543,26559,0,0,0,0,0.00,0.00,0.00,0.00
2014-03-14 09:30:00,2,29328,0,0.00,2,2,0,2,24588,33592,2797,29086,0,0,0,0,0.00,0.00,0.00,0.00
2014-03-14 09:40:00,2,26492,0,0.00,2,2,0,2,23838,31091,2059,25863,0,0,0,0,0.00,0.00,0.00,0.00
2014-03-14 09:50:00,2,23562,0,0.00,2,2,0,2,21791,25663,1224,23354,0,0,0,0,0.00,0.00,0.00,0.00
2014-03-14 10:00:00,2,25552,0,0.00,2,2,0,2,22677,27795,1556,25528,0,0,0,0,0.00,0.00,0.00,0.00
2014-03-14 10:10:00,2,23903,0,0.00,2,2,0,2,20852,25854,1641,24126,0,0,0,0,0.00,0.00,0.00,0.00
2014-03-14 10:20:00,2,25644,0,0.00,2,2,0,2,22346,30424,2414,25494,0,0,0,0,0.00,0.00,0.00,0.00
2014-03-14 10:30:00,2,26750,0,0.00,2,2,0,2,25024,29846,1677,26003,0,0,0,0,0.00,0.00,0.00,0.00
2014-03-14 10:40:00,2,27836,0,0.00,2,2,0,2,25564,32602,2318,27263,0,0,0,0,0.00,0.00,0.00,0.00
2014-03-14 10:50:00,2,25850,0,0.00,2,2,0,2,21969,29995,2641,26000,0,0,0,0,0.00,0.00,0.00,0.00
2014-03-14 11:00:00,2,26776,0,0.00,2,2,0,2,24264,29445,1544,26950,0,0,0,0,0.00,0.00,0.00,0.00
2014-03-14 11:10:00,2,27909,0,0.00,2,2,0,2,24891,31297,1825,28006,0,0,0,0,0.00,0.00,0.00,0.00
2014-03-14 11:20:00,2,24632,0,0.00,2,2,0,2,21862,28719,2417,23934,0,0,0,0,0.00,0.00,0.00,0.00
2014-03-14 11:30:00,2,24287,0,0.00,2,2,0,2,21875,27167,1812,24514,0,0,0,0,0.00,0.00,0.00,0.00
2014-03-14 11:40:00,2,15848,30,0.00,2,2,0,2,10140,20891,3360,16070,0,78,37,0,0.00,0.00,0.00,0.00
2014-03-14 11:50:00,2,13022,61,0.00,2,2,0,2,11297,16428,1370,12728,0,78,31,78,0.00,0.00,0.00,0.00
2014-03-14 12:00:00,2,9690,78,0.04,2,2,0,2,6438,12545,1950,9278,77,78,0,78,0.00,0.10,0.03,0.05
2014-03-14 12:10:00,2,6112,77,0.07,2,2,0,2,4821,7540,851,6065,77,78,0,77,0.00,0.15,0.04,0.08
2014-03-14 12:20:00,2,5486,78,0.11,2,2,0,2,2612,7332,1725,6144,77,78,0,78,0.00,0.75,0.23,0.00
2014-03-14 12:30:00,2,2464,71,1.19,2,2,0,2,1590,3249,432,2440,71,71,0,71,0.35,3.15,0.80,0.97
2014-03-14 12:40:00,2,4602,71,0.47,2,2,0,2,2564,6825,1495,5008,71,71,0,71,0.15,0.80,0.22,0.45
2014-03-14 12:50:00,2,10583,76,0.05,2,2,0,2,7671,15223,2135,10400,71,78,3,78,0.00,0.15,0.04,0.05
2014-03-14 13:00:00,2,22951,78,0.00,2,2,0,2,18229,25987,2185,23072,78,78,0,78,0.00,0.00,0.00,0.00
2014-03-14 13:10:00,2,24006,16,0.00,2,2,0,2,18111,32405,4817,22542,0,78,31,0,0.00,0.00,0.00,0.00
2014-03-14 13:20:00,2,14958,0,0.00,2,2,0,2,11125,17758,1730,15050,0,0,0,0,0.00,0.00,0.00,0.00
2014-03-14 13:30:00,2,22115,0,0.00,2,2,0,2,13692,28022,4363,22611,0,0,0,0,0.00,0.00,0.00,0.00
2014-03-14 13:40:00,2,24191,0,0.00,2,2,0,2,18255,28259,3551,24750,0,0,0,0,0.00,0.00,0.00,0.00
2014-03-14 13:50:00,2,25078,0,0.00,2,2,0,2,14180,32984,7499,29590,0,0,0,0,0.00,0.00,0.00,0.00
2014-03-14 14:00:00,2,29659,0,0.00,2,2,0,2,14955,37399,6817,32030,0,0,0,0,0.00,0.00,0.00,0.00
2014-03-14 14:10:00,2,33395,0,0.00,2,2,0,2,30136,36415,1913,33979,0,0,0,0,0.00,0.00,0.00,0.00
2014-03-14 14:20:00,2,35086,0,0.00,2,2,0,2,29838,38570,2628,35602,0,0,0,0,0.00,0.00,0.00,0.00
2014-03-14 14:30:00,2,35347,0,0.00,2,2,0,2,29437,39065,2471,36084,0,0,0,0,0.00,0.00,0.00,0.00
2014-03-14 14:40:00,2,34444,0,0.00,2,2,0,2,31405,36407,1502,34420,0,0,0,0,0.00,0.00,0.00,0.00
2014-03-14 14:50:00,2,32092,0,0.00,2,2,0,2,28450,39009,3625,30486,0,0,0,0,0.00,0.00,0.00,0.00
2014-03-14 15:00:00,2,26073,0,0.00,2,2,0,2,8877,41515,11454,31760,0,0,0,0,0.00,0.00,0.00,0.00
2014-03-14 15:10:00,2,26846,0,0.00,2,2,0,2,5185,42709,14719,32416,0,0,0,0,0.00,0.00,0.00,0.00
2014-03-14 15:20:00,2,35381,0,0.00,2,2,0,2,29642,42619,4918,34910,0,0,0,0,0.00,0.00,0.00,0.00
2014-03-14 15:30:00,2,35486,0,0.00,2,2,0,2,30133,38324,2139,35700,0,0,0,0,0.00,0.00,0.00,0.00
2014-03-14 15:40:00,2,34989,0,0.00,2,2,0,2,29272,42266,4046,33588,0,0,0,0,0.00,0.00,0.00,0.00
2014-03-14 15:50:00,2,34809,0,0.00,2,2,0,2,28728,38882,2869,35819,0,0,0,0,0.00,0.00,0.00,0.00
2014-03-14 16:00:00,2,38659,0,0.00,2,2,0,2,27776,48604,6444,39314,0,0,0,0,0.00,0.00,0.00,0.00
2014-03-14 16:10:00,2,32136,0,0.00,2,2,0,2,29727,37470,2591,31212,0,0,0,0,0.00,0.00,0.00,0.00
2014-03-14 16:20:00,2,32884,0,0.00,2,2,0,2,30623,36659,1732,32610,0,0,0,0,0.00,0.00,0.00,0.00
2014-03-14 16:30:00,2,33694,0,0.00,2,2,0,2,30009,38358,2850,33411,0,0,0,0,0.00,0.00,0.00,0.00
2014-03-14 16:40:00,2,36115,0,0.00,2,2,0,2,30355,43216,4028,35972,0,0,0,0,0.00,0.00,0.00,0.00
2014-03-14 16:50:00,2,36647,0,0.00,2,2,0,2,30134,43164,3796,36789,0,0,0,0,0.00,0.00,0.00,0.00
2014-03-14 17:00:00,2,31805,0,0.00,2,2,0,2,26621,36252,2568,31305,0,0,0,0,0.00,0.00,0.00,0.00
2014-03-14 17:10:00,2,36782,0,0.00,2,2,0,2,30091,41685,2911,36868,0,0,0,0,0.00,0.00,0.00,0.00
2014-03-14 17:20:00,2,35401,0,0.00,2,2,0,2,30026,39742,3438,35625,0,0,0,0,0.00,0.00,0.00,0.00
2014-03-14 17:30:00,2,32858,0,0.00,2,2,0,2,28520,36062,2208,32601,0,0,0,0,0.00,0.00,0.00,0.00
2014-03-14 17:40:00,2,31569,0,0.00,2,2,0,2,27106,34821,2356,31627,0,0,0,0,0.00,0.00,0.00,0.00
2014-03-14 17:50:00,2,33590,0,0.00,2,2,0,2,26677,37466,3042,34170,0,0,0,0,0.00,0.00,0.00,0.00
2014-03-14 18:00:00,2,32746,0,0.00,2,2,0,2,27347,36033,2729,34108,0,0,0,0,0.00,0.00,0.00,0.00
2014-03-14 18:10:00,2,31483,0,0.00,2,2,0,2,22738,39627,4868,31280,0,0,0,0,0.00,0.00,0.00,0.00
2014-03-14 18:20:00,2,31557,0,0.00,2,2,0,2,23406,39094,4789,31835,0,0,0,0,0.00,0.00,0.00,0.00
2014-03-14 18:30:00,2,29548,0,0.00,2,2,0,2,9549,38304,10133,34484,0,0,0,0,0.00,0.00,0.00,0.00
2014-03-14 18:40:00,2,26742,0,0.00,2,2,0,2,14862,30686,4884,29515,0,0,0,0,0.00,0.00,0.00,0.00
2014-03-14 18:50:00,2,31614,0,0.00,2,2,0,2,27152,34881,2451,31621,0,0,0,0,0.00,0.00,0.00,0.00
2014-03-14 19:00:00,2,30352,0,0.00,2,2,0,2,25578,35003,2996,30213,0,0,0,0,0.00,0.00,0.00,0.00
2014-03-14 19:10:00,2,35472,0,0.00,2,2,0,2,30672,38819,2483,35294,0,0,0,0,0.00,0.00,0.00,0.00
2014-03-14 19:20:00,2,33946,0,0.00,2,2,0,2,30070,38978,2779,33264,0,0,0,0,0.00,0.00,0.00,0.00
2014-03-14 19:30:00,2,34314,0,0.00,2,2,0,2,30114,39219,2632,33512,0,0,0,0,0.00,0.00,0.00,0.00
2014-03-14 19:40:00,2,36048,0,0.00,2,2,0,2,29517,40743,3794,37456,0,0,0,0,0.00,0.00,0.00,0.00
2014-03-14 19:50:00,2,33270,0,0.00,2,2,0,2,29889,41161,3120,32907,0,0,0,0,0.00,0.00,0.00,0.00
2014-03-14 20:00:00,2,34922,0,0.00,2,2,0,2,29528,40835,3797,34146,0,0,0,0,0.00,0.00,0.00,0.00
2014-03-14 20:10:00,2,31184,0,0.00,2,2,0,2,26553,35887,2861,30960,0,0,0,0,0.00,0.00,0.00,0.00
2014-03-14 20:20:00,2,34088,0,0.00,2,2,0,2,29728,42479,3954,33431,0,0,0,0,0.00,0.00,0.00,0.00
2014-03-14 20:30:00,2,35790,0,0.00,2,2,0,2,29523,45336,4557,34546,0,0,0,0,0.00,0.00,0.00,0.00
2014-03-14 20:40:00,2,34023,0,0.00,2,2,0,2,28109,38468,3778,35140,0,0,0,0,0.00,0.00,0.00,0.00
2014-03-14 20:50:00,2,32314,0,0.00,2,2,0,2,27293,37963,3411,31046,0,0,0,0,0.00,0.00,0.00,0.00
2014-03-14 21:00:00,2,31157,0,0.00,2,2,0,2,28053,34387,2348,30826,0,0,0,0,0.00,0.00,0.00,0.00
2014-03-14 21:10:00,2,33661,0,0.00,2,2,0,2,28010,39370,3715,34842,0,0,0,0,0.00,0.00,0.00,0.00
2014-03-14 21:20:00,2,37819,0,0.00,2,2,0,2,28036,47943,6527,38078,0,0,0,0,0.00,0.00,0.00,0.00
2014-03-14 21:30:00,2,30883,0,0.00,2,2,0,2,28492,33871,1716,31033,0,0,0,0,0.00,0.00,0.00,0.00
2014-03-14 21:40:00,2,29608,0,0.00,2,2,0,2,26083,34991,2635,29908,0,0,0,0,0.00,0.00,0.00,0.00
2014-03-14 21:50:00,2,34234,0,0.00,2,2,0,2,29212,40135,3084,34227,0,0,0,0,0.00,0.00,0.00,0.00
2014-03-14 22:00:00,2,29514,0,0.00,2,2,0,2,25004,33656,2543,29920,0,0,0,0,0.00,0.00,0.00,0.00
2014-03-14 22:10:00,2,29685,0,0.00,2,2,0,2,22961,34259,3605,30890,0,0,0,0,0.00,0.00,0.00,0.00
2014-03-14 22:20:00,2,35735,0,0.00,2,2,0,2,29473,42620,3648,34788,0,0,0,0,0.00,0.00,0.00,0.00
2014-03-14 22:30:00,2,30149,0,0.00,2,2,0,2,21528,36829,4619,30734,0,0,0,0,0.00,0.00,0.00,0.00
2014-03-14 22:40:00,2,29962,0,0.00,2,2,0,2,27062,36196,2429,29325,0,0,0,0,0.00,0.00,0.00,0.00
2014-03-14 22:50:00,2,31687,0,0.00,2,2,0,2,28271,36359,2669,31795,0,0,0,0,0.00,0.00,0.00,0.00
2014-03-14 23:00:00,2,33246,0,0.00,2,2,0,2,27230,41405,4314,33412,0,0,0,0,0.00,0.00,0.00,0.00
2014-03-14 23:10:00,2,31085,0,0.00,2,2,0,2,25206,37009,3811,30766,0,0,0,0,0.00,0.00,0.00,0.00
2014-03-14 23:20:00,2,31952,0,0.00,2,2,0,2,26231,41367,4392,30504,0,0,0,0,0.00,0.00,0.00,0.00
2014-03-14 23:30:00,2,32976,0,0.00,2,2,0,2,25435,38642,4391,33224,0,0,0,0,0.00,0.00,0.00,0.00
2014-03-14 23:40:00,2,35190,0,0.00,2,2,0,2,28448,39636,3223,35817,0,0,0,0,0.00,0.00,0.00,0.00
2014-03-14 23:50:00,2,24702,0,0.00,2,2,0,2,17625,33120,4670,25126,0,0,0,0,0.00,0.00,0.00,0.00
